Regional Weather Roundup
Issued by NWS

Home | Current Version | Previous Version | Text Only | Print | Product List | Glossary On
Versions: 1 2 3 4 5 6 7 8 9 10 11 12 13 14 15 16 17 18 19 20 21 22 23 24 25 26 27 28 29 30 31 32 33 34 35 36 37 38 39 40 41 42 43 44 45 46 47 48 49 50
747
ASUS43 KMPX 240701
RWRMN
WEATHER ROUNDUP FOR MINNESOTA
NATIONAL WEATHER SERVICE TWIN CITIES/CHANHASSEN MN
100 AM CST FRI NOV 24 2017


NOTE: "FAIR" INDICATES FEW OR NO CLOUDS BELOW 12,000 FEET WITH NO
SIGNIFICANT WEATHER AND/OR OBSTRUCTIONS TO VISIBILITY. N/A MEANS
CURRENT SKY AND/OR WEATHER CONDITIONS ARE NOT AVAILABLE.

MNZ060>063-068>070-240800-
   Twin Cities Metro

CITY           SKY/WX    TMP DP  RH WIND       PRES   REMARKS
TWIN CITIES    MOCLDY    48  36  63 S6        29.53F
ST PAUL        PTCLDY    42  33  70 SE8       29.55F
CRYSTAL        CLOUDY    47  32  56 S9        29.50F
BLAINE         CLOUDY    50  36  57 S13       29.50F
LAKEVILLE      CLOUDY    46  36  66 SW6       29.54F
EDEN PRAIRIE   PTCLDY    47  34  60 SW10      29.52F
SOUTH ST PAUL  CLOUDY    44  32  63 S5        29.54F
LAKE ELMO      FAIR      43  34  70 S12       29.54F
$$
MNZ001>005-007-008-013>017-022>024-027-028-240800-
   Northwest Minnesota

CITY           SKY/WX    TMP DP  RH WIND       PRES   REMARKS
BEMIDJI        CLEAR     40  34  79 SW7       29.31F
HALLOCK        CLOUDY    37  34  87 S7        29.21S
ROSEAU         CLOUDY    45  37  76 SW14      29.20S
WARROAD        CLOUDY    45  37  76 SW9       29.20S
CROOKSTON      CLOUDY    41  36  81 S5        29.29F
FOSSTON        PTCLDY    39  34  81 S13       29.32F
DETROIT LAKES  CLEAR     45  37  76 SW8       29.36F
MOORHEAD       CLOUDY    37  34  87 CALM      29.35F
PARK RAPIDS    CLEAR     36  31  82 S5        29.36F
MAHNOMEN       FAIR      40  35  83 S13       29.32F
$$
MNZ006-009>011-018-025>026-240800-
   North Central Minnesota

CITY           SKY/WX    TMP DP  RH WIND       PRES   REMARKS
BAUDETTE       CLOUDY    40  34  79 SW7       29.20F
FLAG ISLAND    CLOUDY    39  34  81 SW16      29.13F
INTL FALLS     MOCLDY    40  31  70 S8G17     29.21F
WASKISH        CLOUDY    46  37  71 S8G16     29.24F
BIG FORK       CLOUDY    39  32  75 S10       29.31F
LONGVILLE      CLEAR     37  32  81 S7        29.36F
GRAND RAPIDS   CLOUDY    39  32  76 S9        29.37F
CRANE LAKE     CLOUDY    36  28  75 S9        29.29F
ORR            CLOUDY    37  28  70 S10       29.26F
COOK           CLOUDY    37  30  75 S7        29.31F
WALKER         FAIR      42  35  74 SW9G18    29.35F
$$
MNZ012-019>021-037-240800-
   Northeast Minnesota

CITY           SKY/WX    TMP DP  RH WIND       PRES   REMARKS
DULUTH         PTCLDY    39  31  72 SW17      29.38F
ELY            CLOUDY    37  28  70 SW8       29.32F
HIBBING        CLOUDY    33  27  78 S5        29.36F WCI  29
EVELETH        CLOUDY    32  25  74 SW5       29.37F WCI  28
DULUTH HARBOR  PTCLDY    41  32  70 SW8       29.41F
TWO HARBORS    PTCLDY    37  28  70 SW3       29.37F
SILVER BAY     PTCLDY    36  28  75 SW5       29.37F
GRAND MARAIS     N/A     40  33  76 SW13      29.39F
G MARAIS ARPRT CLOUDY    32  25  74 S9        29.36F WCI  24
$$
MNZ029>031-032-039>041-046>048-054>057-064-240800-
   West Central Minnesota

CITY           SKY/WX    TMP DP  RH WIND       PRES   REMARKS
FERGUS FALLS   CLEAR     39  36  87 S9        29.42F
MORRIS         CLEAR     43  36  75 S9        29.42F
ALEXANDRIA     CLEAR     47  38  71 SW10      29.43F
ELBOW LAKE     FAIR      37  34  87 S10       29.41F
WADENA         CLEAR     46  37  71 SW8       29.39F
GLENWOOD       CLEAR     41  36  81 SW10      29.45F
APPLETON       CLEAR     48  37  66 SW8       29.45F
BENSON         CLEAR     39  34  81 S5        29.46F
ORTONVILLE     CLEAR     54  39  58 NW12      29.44F
MADISON        CLEAR     52  39  62 SW10      29.46F
WILLMAR        FAIR      39  36  87 CALM      29.48F
$$
MNZ033>034-036-042>043-049>051-058-059-240800-
   Central Minnesota

CITY           SKY/WX    TMP DP  RH WIND       PRES   REMARKS
ST CLOUD       MOCLDY    39  33  79 S6        29.47F
SAUK CENTRE    FAIR      40  35  81 S5        29.44F
PAYNESVILLE    MOCLDY    43  37  77 S5        29.47F
AITKIN         CLOUDY    37  32  81 S7        29.39F
PINE RIVER     CLEAR     32  28  86 S5        29.43F WCI  27
BRAINERD       CLEAR     40  32  73 S7        29.41F
STAPLES        CLEAR     37  34  87 S6        29.40F
LONG PRAIRIE   FAIR      37  34  87 S7        29.43F
LITTLE FALLS   MOCLDY    41  30  65 S5        29.44F
LITCHFIELD     PTCLDY    45  36  70 S3        29.48F
BUFFALO        PTCLDY    44  34  66 S6        29.51F
MAPLE LAKE     PTCLDY    44  36  72 S5        29.50F
HUTCHINSON     CLOUDY    40  35  80 CALM      29.51F
$$
MNZ037-044-045-052-053-240800-
   East Central Minnesota

CITY           SKY/WX    TMP DP  RH WIND       PRES   REMARKS
PRINCETON      PTCLDY    45  34  65 S6        29.48F
MORA           PTCLDY    36  30  80 S5        29.50F
CAMBRIDGE      PTCLDY    45  34  65 S8        29.49F
RUSH CITY      CLOUDY    41  32  70 S9        29.49F
MOOSE LAKE     CLOUDY    36  30  80 SW9       29.42F
HINCKLEY       PTSUNNY   37  32  81 S5        29.47F
CLOQUET        CLEAR     37  28  70 SW14G22   29.40F
MCGREGOR       CLEAR     39  32  75 S9        29.40F
$$
MNZ071>073-080-081-089-090-097-098-240800-
   Southwest Minnesota

CITY           SKY/WX    TMP DP  RH WIND       PRES   REMARKS
MONTEVIDEO     CLEAR     46  37  71 SW9       29.46F
GRANITE FALLS  CLEAR     48  40  73 S10       29.49F
CANBY          PTCLDY    54  40  58 SW15      29.48F
MARSHALL       CLEAR     53  40  61 SW16      29.49F
REDWOOD FALLS  CLEAR     49  37  63 SW18      29.49F
OLIVIA         CLEAR     43  36  75 S10       29.49F
PIPESTONE      CLEAR     46  37  71 SW10      29.54F
WINDOM         CLEAR     46  30  53 S10       29.56F
WORTHINGTON    CLEAR     50  39  66 SW20      29.56F
JACKSON        CLEAR     48  36  61 S12G17    29.58F
SLAYTON        CLEAR     46  38  73 SW17      29.56F
$$
MNZ065>067-074>077-082>085-091>093-240800-
   South Central Minnesota

CITY           SKY/WX    TMP DP  RH WIND       PRES   REMARKS
MANKATO        CLEAR     44  34  67 S9        29.56F
NEW ULM        CLEAR     39  34  81 CALM      29.53F
ST JAMES       CLEAR     46  37  71 S10       29.55F
FAIRMONT       CLEAR     44  36  73 S14       29.58F
GLENCOE        PTCLDY    43  35  72 S8        29.51F
FARIBAULT      PTCLDY    46  36  66 S6        29.57F
OWATONNA       CLEAR     46  36  66 S16G23    29.58F
WASECA         CLEAR     45  34  65 S16       29.59F
ALBERT LEA     CLEAR     46  34  61 S12G18    29.60F
$$
MNZ078>079-086>088-094>096-240800-
   Southeast Minnesota

CITY           SKY/WX    TMP DP  RH WIND       PRES   REMARKS
ROCHESTER      CLOUDY    43  33  68 S24       29.61F
RED WING       CLOUDY    45  30  57 SE5       29.57F
STANTON        PTCLDY    45  34  65 S13       29.54F
DODGE CENTER   CLOUDY    43  32  65 S22G28    29.59F
WINONA         PTCLDY    46  32  57 S3        29.64F
PRESTON        CLEAR     43  31  63 S13G26    29.64F
$$
ABBREVIATIONS USED IN REMARKS
   TC - TEMPERATURES IN CELSIUS
  WCI - WIND CHILL INDEX
   HX - HEAT INDEX
  VSB - VISIBILITY
$$




USA.gov is the U.S. government's official web portal to all federal, state and local government web resources and services.